Weather History for KAMW - April, 2012

Change the Weather History Date:

Tuesday, April 3, 2012

  Actual Average Record
Temperature  
Mean Temperature 62 °F 45 °F  
Max Temperature 69 °F 56 °F - ()
Min Temperature 54 °F 34 °F - ()
Degree Days  
Heating Degree Days 3 20  
Month to date heating degree days 4 62  
Since 1 July heating degree days 4936 6218  
Cooling Degree Days 0 0  
Month to date cooling degree days 4 0  
Year to date cooling degree days 19 0  
Growing Degree Days 12 (Base 50)    
Moisture  
Dew Point 49 °F    
Average Humidity 72    
Maximum Humidity 93    
Minimum Humidity 51    
Precipitation  
Precipitation 0.00 in 0.07 in - ()
Month to date precipitation 0.22  
Sea Level Pressure  
Sea Level Pressure 29.87 in    
Wind  
Wind Speed 14 mph (North)    
Max Wind Speed 24 mph    
Max Gust Speed 31 mph    
Visibility 9 miles    
Events      
T = Trace of Precipitation, MM = Missing Value Source: NWS Daily Summary

Daily Weather History Graph

Daily Weather History Graph

Search for Another Location

Airport or City:

Trip Planner

Search our weather history database for the weather conditions in past years. The results will help you decide how hot, cold, wet, or windy it might be!

Date:

Astronomy

Apr. 03, 2012 Rise Set
Actual Time 6:52 AM CDT 7:42 PM CDT
Civil Twilight 6:24 AM CDT 8:11 PM CDT
Nautical Twilight 5:51 AM CDT 8:44 PM CDT
Astronomical Twilight 5:16 AM CDT 9:19 PM CDT
Moon 4:24 PM CDT (4/3) 4:44 AM CDT (4/3)
Length of Visible Light 13h 46m
Length of Day
12h 49m
Waxing Gibbous, 87% of the Moon is Illuminated
Apr 3
Waxing Gibbous
Apr 6
Full
Apr 13
Last Quarter
Apr 21
New
Apr 29
First Quarter

Hourly Weather History & Observations

Time (CDT) Temp. Dew Point Humidity Pressure Visibility Wind Dir Wind Speed Gust Speed Precip Events Conditions
12:53 AM 63.0 °F 57.9 °F 84% 29.70 in 10.0 mi South 5.8 mph - N/A   Clear
1:53 AM 62.1 °F 55.0 °F 78% 29.72 in 10.0 mi WSW 6.9 mph - N/A   Clear
2:53 AM 62.1 °F 55.9 °F 80% 29.74 in 10.0 mi WNW 6.9 mph - N/A   Clear
3:53 AM 55.9 °F 53.1 °F 90% 29.76 in 8.0 mi WSW 5.8 mph - N/A   Clear
4:53 AM 57.0 °F 51.1 °F 81% 29.78 in 10.0 mi WNW 8.1 mph - N/A   Clear
5:53 AM 55.0 °F 48.9 °F 80% 29.78 in 10.0 mi WNW 12.7 mph - N/A   Clear
6:53 AM 55.0 °F 48.9 °F 80% 29.82 in 10.0 mi NW 13.8 mph - N/A   Clear
7:53 AM 57.0 °F 52.0 °F 83% 29.86 in 5.0 mi NNW 15.0 mph 24.2 mph N/A   Haze
8:53 AM 57.9 °F 53.1 °F 84% 29.88 in 5.0 mi North 15.0 mph - N/A   Haze
9:53 AM 59.0 °F 50.0 °F 72% 29.91 in 9.0 mi North 17.3 mph - N/A   Clear
10:53 AM 61.0 °F 48.0 °F 62% 29.91 in 10.0 mi NNE 18.4 mph 26.5 mph N/A   Clear
11:53 AM 61.0 °F 45.0 °F 56% 29.91 in 10.0 mi NNE 20.7 mph 26.5 mph N/A   Clear
12:53 PM 63.0 °F 46.9 °F 56% 29.91 in 10.0 mi NNE 19.6 mph 27.6 mph N/A   Clear
1:53 PM 66.0 °F 50.0 °F 56% 29.90 in 10.0 mi NNE 18.4 mph 26.5 mph N/A   Clear
2:53 PM 66.9 °F 48.9 °F 52% 29.89 in 10.0 mi NE 17.3 mph 25.3 mph N/A   Clear
3:53 PM 69.1 °F 50.0 °F 51% 29.88 in 10.0 mi NE 17.3 mph - N/A   Clear
5:53 PM 66.0 °F 48.0 °F 52% 29.91 in 10.0 mi NNE 13.8 mph - N/A   Clear
6:53 PM 63.0 °F 46.9 °F 56% 29.93 in 10.0 mi North 13.8 mph - N/A   Clear
7:53 PM 60.1 °F 45.0 °F 57% 29.93 in 10.0 mi NNE 15.0 mph - N/A   Clear
8:53 PM 59.0 °F 44.1 °F 58% 29.96 in 10.0 mi North 17.3 mph 24.2 mph N/A   Mostly Cloudy
9:53 PM 57.0 °F 44.1 °F 62% 29.96 in 10.0 mi NNE 11.5 mph 21.9 mph N/A   Overcast
10:53 PM 57.0 °F 44.1 °F 62% 29.97 in 10.0 mi NE 10.4 mph - N/A   Overcast
11:53 PM 57.0 °F 43.0 °F 59% 29.96 in 10.0 mi NE 13.8 mph 18.4 mph N/A   Overcast